[[{"header":{"parameterUnit":"m.s-1","parameterCategory":1,"la1":30.2991,"la2":30.254,"lo1":-89.0895,"lo2":-89.0444,"dy":0.0017,"dx":0.0017,"nx":28,"ny":28,"refTime":"2025-01-21T03:00:00:Z","depth":0,"parameterNumber":2,"parameterNumberName":"U-component_of_WINDS"},"data":[0,0,0,0,0,0,0,0,0,0,0,0,0,0,0,0,0,0,0,0,0,0,0,0,0,0,0,0,0,0,0,0,0,0,0,0,0,0,0,0,0,0,0,0,0,0,0,0,0,0,0,0,0,0,0,0,0,0,-2.7883,-2.7883,0,-2.7931,-2.7932,-2.7932,-2.7837,-2.7834,-2.7831,-2.7828,-2.7881,-2.7885,-2.7889,0,0,0,0,0,0,0,0,0,0,0,0,0,-2.7711,-2.7714,-2.7882,-2.7883,-2.7884,-2.7931,-2.7932,-2.7932,-2.7838,-2.7834,-2.783,-2.7827,-2.7879,-2.7884,-2.789,0,0,0,0,0,0,0,0,0,0,0,0,0,-2.7775,-2.7715,-2.7882,-2.7842,-2.7839,-2.7931,-2.7932,-2.7932,-2.7839,-2.7834,-2.7829,-2.7825,-2.7878,-2.7884,-2.789,-2.8024,0,0,-2.791,-2.7913,0,0,0,0,0,0,0,0,-2.7771,-2.7781,-2.7848,-2.7845,-2.7842,-2.7873,-2.789,-2.7963,-2.784,-2.7839,-2.7828,-2.7823,-2.7882,-2.7888,-2.7908,-2.8026,-2.8029,-2.7911,-2.7915,-2.7917,-2.7919,0,0,0,0,0,0,0,-2.7767,-2.7779,-2.7902,-2.7849,-2.7845,-2.7823,-2.7827,-2.7903,-2.7887,-2.7839,-2.7832,-2.7839,-2.788,-2.7902,-2.7908,-2.8029,-2.791,-2.7916,-2.792,-2.7923,-2.8261,-2.8266,0,0,0,0,0,0,-2.7767,-2.7776,-2.79,-2.7903,-2.7794,-2.783,-2.7834,-2.7868,-2.7885,-2.7883,-2.7843,-2.7834,-2.7893,-2.7901,-2.791,-2.8068,-2.7917,-2.7923,-2.7927,-2.8256,-2.8262,-2.8267,0,0,0,0,0,0,-2.7764,-2.7779,-2.7898,-2.7838,-2.7851,-2.7837,-2.7877,-2.7871,-2.7893,-2.7888,-2.7885,-2.7868,-2.7889,-2.79,-2.7996,-2.8068,-2.7926,-2.7932,-2.825,-2.8258,-2.8265,-2.8386,0,0,0,0,0,0,-2.7759,-2.7779,-2.7829,-2.7839,-2.7855,-2.7984,-2.7881,-2.7876,-2.7904,-2.7893,-2.7911,-2.791,-2.7887,-2.7987,-2.8003,-2.8075,-2.7937,-2.8243,-2.8253,-2.8262,-2.8375,-2.8397,-2.8415,0,0,0,0,0,-2.7754,-2.7862,-2.7832,-2.7848,-2.7917,-2.7988,-2.7997,-2.7967,-2.791,-2.7961,-2.7958,-2.7909,-2.8057,-2.7998,-2.8014,-2.809,-2.8239,-2.825,-2.8262,-2.8366,-2.8392,-2.8414,0,0,0,0,0,0,-2.7861,-2.7862,-2.7829,-2.7944,-2.7967,-2.7972,-2.8035,-2.7996,-2.8036,-2.8025,-2.7987,-2.7992,-2.8095,-2.8101,-2.8035,-2.822,-2.8138,-2.8154,-2.8213,-2.8237,-2.8257,-2.8254,-2.7943,0,0,0,0,0,-2.7898,-2.7955,-2.7953,-2.8054,-2.8067,-2.805,-2.8079,-2.8054,-2.8077,-2.8086,-2.809,-2.8115,-2.8166,-2.8202,-2.8249,-2.8375,-2.8378,-2.8435,-2.8454,-2.8471,-2.8485,-2.8553,-2.8578,-2.8305,-2.8305,-2.8305,0,0,-2.7975,-2.7983,-2.8021,-2.8076,-2.8091,-2.8151,-2.8058,-2.8126,-2.8171,-2.8097,-2.8188,-2.8191,-2.8216,-2.8327,-2.8377,-2.8336,-2.8561,-2.8485,-2.8498,-2.8504,-2.8567,-2.8593,-2.8616,-2.8313,-2.8312,-2.831,0,0,-2.8147,-2.8158,-2.8244,-2.826,-2.8283,-2.8271,-2.8291,-2.8303,-2.8302,-2.8392,-2.8337,-2.839,-2.8481,-2.8501,-2.8523,-2.8701,-2.8658,-2.8717,-2.8822,-2.8888,-2.891,-2.8929,-2.8994,-2.9017,-2.8731,-2.8732,-2.8732,0,-2.8241,-2.833,-2.8293,-2.8366,-2.8392,-2.8325,-2.8413,-2.843,-2.8468,-2.8488,-2.8441,-2.8553,-2.8565,-2.868,-2.8724,-2.8743,-2.8767,-2.8717,-2.8909,-2.8928,-2.8945,-2.9007,-2.9031,-2.8739,-2.8738,-2.8737,-2.8737,0,-2.8444,-2.8506,-2.8573,-2.861,-2.8644,-2.8723,-2.87,-2.8738,-2.8709,-2.8702,-2.8795,-2.8806,-2.8855,-2.888,-2.8854,-2.8993,-2.8967,-2.8915,-2.8833,-2.8979,-2.9036,-2.906,-2.8749,-2.8747,-2.8745,-2.8743,0,0,-2.8688,-2.8703,-2.8728,-2.8744,-2.8764,-2.8812,-2.8888,-2.8935,-2.8969,-2.8997,-2.9061,-2.9138,-2.9091,-2.9116,-2.909,-2.9148,-2.9291,-2.909,-2.909,-2.9128,-2.9446,-2.9486,-2.9513,-2.9261,-2.9265,-2.9269,-2.9444,0,-2.8859,-2.899,-2.896,-2.9089,-2.9147,-2.9084,-2.9151,-2.9171,-2.9165,-2.9214,-2.9208,-2.9264,-2.9196,-2.9211,-2.9265,-2.9262,-2.9354,-2.9249,-2.9322,-2.9325,-2.932,-2.9543,-2.9586,-2.9751,-2.9466,-2.947,-2.9472,0,-2.9078,-2.9114,-2.9249,-2.9259,-2.9282,-2.9343,-2.9383,-2.943,-2.9451,-2.9443,-2.9471,-2.9434,-2.951,-2.9425,-2.953,-2.9459,-2.9487,-2.949,-2.9495,-2.9503,-2.9409,-2.9559,-2.9802,-2.9828,-2.9507,-2.9504,-2.9502,0,-2.9244,-2.9326,-2.9417,-2.9433,-2.9447,-2.9491,-2.9499,-2.9515,-2.9545,-2.9581,-2.96,-2.9644,-2.9669,-2.9704,-2.968,-2.9621,-2.979,-2.9703,-2.9787,-2.9788,-2.9827,-2.9825,-3.0081,-2.9842,-2.9842,-2.9841,-2.9841,0,-2.9441,-2.9527,-2.9492,-2.9549,-2.9643,-2.9607,-2.9701,-2.9702,-2.9717,-2.9773,-2.9721,-2.9775,-2.9739,-2.979,-2.9772,-2.9863,-2.9874,-2.987,-2.9865,-2.9876,-2.9877,-2.9896,-2.9884,-2.9848,-2.9846,-2.9845,-2.9844,0,-2.9643,-2.9624,-2.972,-2.9724,-2.9728,-2.9797,-2.9802,-2.9855,-2.9844,-2.9916,-2.9931,-2.9916,-2.9973,-2.9952,-3.0014,-3.0002,-3.0117,-3.0096,-3.0111,-3.0106,-3.0191,-3.0184,-3.0469,-3.0505,-3.0242,-3.0244,-3.0246,0,-2.9771,-2.9836,-2.9847,-2.9881,-2.9892,-2.9947,-2.9977,-2.9943,-2.9977,-3.0005,-3.0055,-3.0108,-3.0148,-3.0243,-3.0238,-3.0285,-3.0266,-3.0362,-3.0272,-3.0282,-3.0269,-3.0266,-3.0273,-3.0381,-3.0384,-3.0386,-3.0388,0,-3.0001,-2.9987,-3.0032,-3.0075,-3.0112,-3.0144,-3.0171,-3.0201,-3.0169,-3.021,-3.0267,-3.0299,-3.0361,-3.0414,-3.0456,-3.0464,-3.0422,-3.0416,-3.0438,-3.0452,-3.0458,-3.0458,-3.0162,-3.0411,-3.0408,-3.0407,-3.0406,-3.0405,-3.0171,-3.0225,-3.0242,-3.0294,-3.0311,-3.0337,-3.0387,-3.0383,-3.043,-3.0478,-3.0455,-3.0522,-3.0541,-3.0592,-3.0607,-3.0659,-3.0622,-3.0654,-3.0662,-3.0671,-3.0683,-3.0448,-3.0666,-3.0666,-3.0665,-3.0665,-3.0664,0,-3.0399,-3.0406,-3.0454,-3.0493,-3.0535,-3.0489,-3.0516,-3.0554,-3.0614,-3.0635,-3.0675,-3.0742,-3.0793,-3.0791,-3.0839,-3.0881,-3.0863,-3.0895,-3.0893,-3.0895,-3.0713,-3.069,-3.0909,-3.0909,-3.0909,-3.0909,-3.0909,-3.0909,-3.0523,-3.0613,-3.0602,-3.0699,-3.0706,-3.0771,-3.0791,-3.0815,-3.0831,-3.0908,-3.095,-3.0947,-3.096,-3.1007,-3.1052,-3.105,-3.1071,-3.1111,-3.1103,-3.0932,-3.0908,-3.0885,-3.0863,-3.1116,-3.1116,-3.1281,-3.1282,-3.1284]},{"header":{"parameterUnit":"m.s-1","parameterCategory":1,"la1":30.2991,"la2":30.254,"lo1":-89.0895,"lo2":-89.0444,"dy":0.0017,"dx":0.0017,"nx":28,"ny":28,"refTime":"2025-01-21T03:00:00:Z","depth":0,"parameterNumber":3,"parameterNumberName":"V-component_of_WINDS"},"data":[0,0,0,0,0,0,0,0,0,0,0,0,0,0,0,0,0,0,0,0,0,0,0,0,0,0,0,0,0,0,0,0,0,0,0,0,0,0,0,0,0,0,0,0,0,0,0,0,0,0,0,0,0,0,0,0,0,0,-5.4813,-5.4814,0,-5.4911,-5.4912,-5.4913,-5.4863,-5.4861,-5.4858,-5.4856,-5.4951,-5.4956,-5.4961,0,0,0,0,0,0,0,0,0,0,0,0,0,-5.4579,-5.4584,-5.4813,-5.4814,-5.4815,-5.491,-5.4912,-5.4913,-5.4864,-5.486,-5.4857,-5.4854,-5.4949,-5.4955,-5.4961,0,0,0,0,0,0,0,0,0,0,0,0,0,-5.4679,-5.4585,-5.4813,-5.4802,-5.4802,-5.491,-5.4912,-5.4913,-5.4864,-5.486,-5.4857,-5.4853,-5.4948,-5.4955,-5.4962,-5.5084,0,0,-5.4985,-5.4988,0,0,0,0,0,0,0,0,-5.4673,-5.4688,-5.4803,-5.4803,-5.4803,-5.4871,-5.4864,-5.4971,-5.4865,-5.4841,-5.4856,-5.4851,-5.4927,-5.4936,-5.4963,-5.5089,-5.5093,-5.4985,-5.499,-5.4993,-5.4995,0,0,0,0,0,0,0,-5.4666,-5.4683,-5.4851,-5.4804,-5.4805,-5.4791,-5.4801,-5.4884,-5.4904,-5.4842,-5.4839,-5.4852,-5.4927,-5.4956,-5.4964,-5.5094,-5.4985,-5.4992,-5.4996,-5.4999,-5.5324,-5.5328,0,0,0,0,0,0,-5.4661,-5.4678,-5.4848,-5.4854,-5.4728,-5.4798,-5.481,-5.4853,-5.4903,-5.4907,-5.4855,-5.4849,-5.4945,-5.4956,-5.4968,-5.5114,-5.4993,-5.5,-5.5004,-5.532,-5.5325,-5.533,0,0,0,0,0,0,-5.4656,-5.4676,-5.4844,-5.4765,-5.4786,-5.4807,-5.4856,-5.4857,-5.4886,-5.4912,-5.4915,-5.4881,-5.4942,-5.4957,-5.5056,-5.5116,-5.5003,-5.501,-5.5315,-5.5322,-5.5328,-5.5407,0,0,0,0,0,0,-5.4649,-5.4675,-5.4723,-5.4767,-5.479,-5.4933,-5.4859,-5.4862,-5.4899,-5.4893,-5.4938,-5.4942,-5.494,-5.5045,-5.5063,-5.5124,-5.5016,-5.531,-5.5318,-5.5326,-5.5399,-5.5415,-5.5429,0,0,0,0,0,-5.4641,-5.4741,-5.4726,-5.4746,-5.4851,-5.4936,-5.4949,-5.4947,-5.4904,-5.4952,-5.4969,-5.494,-5.5107,-5.5056,-5.5075,-5.514,-5.5306,-5.5316,-5.5325,-5.5392,-5.5412,-5.5429,0,0,0,0,0,0,-5.4702,-5.4746,-5.473,-5.4847,-5.4888,-5.4928,-5.4988,-5.4968,-5.5022,-5.5013,-5.5007,-5.5017,-5.512,-5.5139,-5.5082,-5.526,-5.52,-5.5213,-5.5244,-5.5263,-5.5278,-5.5271,-5.5022,0,0,0,0,0,-5.4729,-5.4797,-5.4831,-5.4931,-5.4952,-5.4967,-5.5004,-5.4999,-5.5041,-5.5058,-5.5082,-5.5123,-5.5184,-5.5224,-5.5282,-5.5402,-5.541,-5.5456,-5.5471,-5.5483,-5.5495,-5.5559,-5.5579,-5.5361,-5.5361,-5.5361,0,0,-5.4786,-5.4818,-5.4861,-5.4944,-5.4975,-5.5044,-5.4982,-5.5057,-5.5107,-5.5069,-5.5164,-5.5183,-5.5227,-5.5337,-5.5386,-5.5356,-5.5557,-5.5495,-5.5505,-5.551,-5.557,-5.5591,-5.5609,-5.5367,-5.5366,-5.5365,0,0,-5.4924,-5.4956,-5.5042,-5.5075,-5.5124,-5.5133,-5.5154,-5.5196,-5.5208,-5.5303,-5.5276,-5.5334,-5.544,-5.5473,-5.5504,-5.5654,-5.5629,-5.5673,-5.5751,-5.5814,-5.5831,-5.5846,-5.5899,-5.5918,-5.5685,-5.5685,-5.5685,0,-5.4987,-5.5091,-5.5088,-5.5166,-5.5203,-5.5172,-5.5259,-5.529,-5.5355,-5.5381,-5.5347,-5.5479,-5.5507,-5.5623,-5.566,-5.5686,-5.5708,-5.5668,-5.5829,-5.5844,-5.5858,-5.5909,-5.5929,-5.569,-5.5689,-5.5689,-5.5688,0,-5.5167,-5.5239,-5.5303,-5.5368,-5.5411,-5.5493,-5.5501,-5.5545,-5.5536,-5.5548,-5.5645,-5.5677,-5.5741,-5.5768,-5.576,-5.5883,-5.5863,-5.583,-5.5768,-5.5884,-5.5931,-5.5951,-5.5697,-5.5695,-5.5694,-5.5693,0,0,-5.5346,-5.5409,-5.5432,-5.5461,-5.5513,-5.5568,-5.5647,-5.5711,-5.5749,-5.5794,-5.586,-5.595,-5.5919,-5.5954,-5.5948,-5.6003,-5.6119,-5.5962,-5.5963,-5.599,-5.6257,-5.6282,-5.6305,-5.6103,-5.6107,-5.611,-5.6253,0,-5.5488,-5.5629,-5.5629,-5.5758,-5.5824,-5.5796,-5.5865,-5.5903,-5.5916,-5.5973,-5.5986,-5.605,-5.6004,-5.6025,-5.6078,-5.6094,-5.6173,-5.6084,-5.6163,-5.6166,-5.6153,-5.6329,-5.6357,-5.649,-5.6271,-5.6274,-5.6277,0,-5.5672,-5.5725,-5.5862,-5.5904,-5.5931,-5.5994,-5.6052,-5.6107,-5.6149,-5.6154,-5.6193,-5.6179,-5.6258,-5.6195,-5.6303,-5.6242,-5.6274,-5.6287,-5.6292,-5.6299,-5.6228,-5.6341,-5.6533,-5.6553,-5.6306,-5.6303,-5.6301,0,-5.5789,-5.5894,-5.599,-5.6015,-5.6066,-5.6111,-5.6134,-5.6172,-5.621,-5.626,-5.6285,-5.6343,-5.6375,-5.6419,-5.6421,-5.6374,-5.653,-5.6466,-5.6535,-5.6535,-5.6569,-5.6567,-5.6769,-5.659,-5.659,-5.659,-5.6589,0,-5.5947,-5.6032,-5.6043,-5.6102,-5.6195,-5.6193,-5.6285,-5.6304,-5.6338,-5.6399,-5.6377,-5.6434,-5.6432,-5.6489,-5.6491,-5.658,-5.6594,-5.66,-5.6599,-5.6602,-5.6601,-5.6623,-5.6613,-5.6595,-5.6594,-5.6593,-5.6592,0,-5.6094,-5.6105,-5.6207,-5.6247,-5.6259,-5.6326,-5.6359,-5.6415,-5.6425,-5.6502,-5.652,-5.6536,-5.6603,-5.6609,-5.6685,-5.6686,-5.6794,-5.6783,-5.678,-5.6778,-5.6847,-5.684,-5.7069,-5.7099,-5.6901,-5.6903,-5.6905,0,-5.6194,-5.6259,-5.6306,-5.6346,-5.6372,-5.6436,-5.6475,-5.6475,-5.6516,-5.6569,-5.6617,-5.6682,-5.6733,-5.684,-5.6858,-5.6916,-5.6906,-5.6983,-5.6915,-5.6915,-5.6907,-5.6903,-5.6909,-5.6996,-5.6998,-5.7,-5.7001,0,-5.637,-5.6373,-5.6431,-5.6492,-5.6539,-5.6586,-5.663,-5.6663,-5.6668,-5.6715,-5.6784,-5.6824,-5.6903,-5.6966,-5.7023,-5.7045,-5.7024,-5.7022,-5.7041,-5.7045,-5.7041,-5.7043,-5.6816,-5.7017,-5.7015,-5.7014,-5.7013,-5.7013,-5.6497,-5.6553,-5.6595,-5.666,-5.6694,-5.6735,-5.6789,-5.6807,-5.6865,-5.693,-5.6925,-5.7001,-5.7039,-5.7114,-5.714,-5.7198,-5.7172,-5.7199,-5.7206,-5.7213,-5.722,-5.7032,-5.7208,-5.7208,-5.7207,-5.7207,-5.7206,0,-5.6672,-5.6698,-5.6758,-5.6821,-5.6872,-5.6849,-5.6896,-5.694,-5.7007,-5.7046,-5.7098,-5.7176,-5.7238,-5.726,-5.732,-5.7362,-5.7354,-5.7377,-5.7374,-5.7379,-5.724,-5.7218,-5.7383,-5.7383,-5.7383,-5.7383,-5.7383,-5.7383,-5.6769,-5.6863,-5.687,-5.6979,-5.7004,-5.7079,-5.7108,-5.7146,-5.7177,-5.7266,-5.7317,-5.7332,-5.7364,-5.7426,-5.7481,-5.7486,-5.7509,-5.7537,-5.7538,-5.7407,-5.7389,-5.7372,-5.7351,-5.7542,-5.7542,-5.7672,-5.7673,-5.7674]}]]